User: anonymous   Login
Location: Oshawa
(43.9000°N, 78.8670°W)
Time: 13:11:13
(UTC-05:00)
Language:

Cosmos 1953 Rocket - Orbit

View from above orbital plane
View from above orbital plane
View from above satellite
View from above satellite

Ground track
Ground track

The orbit data is extracted from the following two-line orbital elements,

1 19211U 88050B   16341.57716620  .00000097  00000-0  89662-5 0  9996
2 19211  82.5269  22.5613 0022739  35.6235  76.7843 14.82936465538249
Epoch (UTC): 06 December 2016 13:51:07
Eccentricity: 0.0022739
inclination: 82.5269°
perigee height: 604 km
apogee height: 636 km
right ascension of ascending node: 22.5613°
argument of perigee: 35.6235°
revolutions per day: 14.82936465
mean anomaly at epoch: 76.7843°
orbit number at epoch: 53824

The dashed part of the orbit path shows where the satellite is in the earth's shadow,  

DLR